• Processing (Info)

  • MPEC 2010-Q15 : 2007 RU12

    The following Minor Planet Electronic Circular may be linked-to from your own Web pages, but must not otherwise be redistributed electronically.

    A form allowing access to any MPEC is at the bottom of this page.


    Read MPEC 2010-Q14 Read MPEC 2010-Q16


    M.P.E.C. 2010-Q15                                Issued 2010 Aug. 20, 15:39 UT
    
         The Minor Planet Electronic Circulars contain information on unusual
             minor planets and routine data on comets.  They are published
       on behalf of Commission 20 of the International Astronomical Union by the
              Minor Planet Center, Smithsonian Astrophysical Observatory,
                              Cambridge, MA 02138, U.S.A.
    
                 Prepared using the Tamkin Foundation Computer Network
    
                                  MPC@CFA.HARVARD.EDU
           URL https://www.minorplanetcenter.org/iau/mpc.html  ISSN 1523-6714
    
                                       2007 RU12
    
                               Revision to MPEC 2007-R69
    
    Additional Observations:
         K07R12U 2C2010 07 14.41855416 18 50.842-26 20 44.90         23.9 R EQ015568
         K07R12U 2C2010 07 14.42593216 18 50.532-26 20 44.39         24.1 R EQ015568
         K07R12U 2C2010 07 15.42301416 18 10.221-26 19 50.48         23.8 R EQ015568
         K07R12U 2C2010 07 15.43028916 18 09.926-26 19 50.10         23.9 R EQ015568
    
    Observer details:
    568 Mauna Kea.  Observers D. J. Tholen, G. T. Elliott, M. Micheli.  2.24-m
        University of Hawaii reflector.
    
    First and last observations above in comparison with prediction:
    Residuals in seconds of arc, reference and Delta-T
    100714 568 38.7- 14.3+    100715 568 38.4- 14.5+    MPO131970   +0.052 day
    
    Orbital elements:
    2007 RU12                                                Earth MOID = 0.2746 AU
    Epoch 2010 July 23.0 TT = JDT 2455400.5                 MPC
    M 285.67828              (2000.0)            P               Q
    n   0.28427820     Peri.  334.59733     +0.85474992     -0.50899386
    a   2.2907288      Node    56.37452     +0.49460694     +0.73938288
    e   0.4490454      Incl.    7.01028     +0.15737392     +0.44072464
    P   3.47           H   20.0           G   0.15           U   1
    Residuals in seconds of arc
    070912 703  0.7-  0.2-    071030 H45  0.1+  0.1+    071112 A48  0.1-  0.3+
    070912 703  0.6-  0.7-    071030 H45  0.1+  0.3+    071112 A48  0.2-  0.1+
    070912 703 (2.1-  1.3+)   071030 703  0.7-  0.5+    071112 A48  0.7-  0.4+
    070912 703  0.6+  0.3+    071030 703  0.7-  0.4-    071112 A48  0.4-  0.4+
    070912 703  0.2-  0.1-    071030 703  1.2-  0.5-    071114 704  0.1-  0.5+
    070912 703  1.1-  1.2+    071031 A24  0.3+  0.4+    071114 704  0.2-  0.7+
    070912 703 (2.3+  0.6+)   071031 A24  0.1+  0.3+    071114 704  0.2-  0.4+
    070912 703  1.1-  0.6+    071031 A24  0.6+  0.0     071114 704  0.0   0.7+
    070912 A13  0.6+  0.9+    071031 A24  0.6+  1.0+    071114 704  0.0   0.8+
    070912 A13  0.2+  1.1-    071031 A24  0.9+  1.5+    071114 H45  0.4+  0.1-
    070912 A13  0.7+  0.4+    071101 A24  0.6+  0.3+    071114 H45  0.1+  0.0
    070913 H55  0.3-  0.3-    071102 H45  0.0   0.0     071114 H45  0.1+  0.2-
    070913 H55  0.2-  0.3-    071102 H45  0.0   0.6+    071114 H45  0.2+  0.1+
    070913 H55  0.0   0.1-    071102 H45  0.1-  0.0     071114 H45  0.0   0.4-
    070913 673  0.3-  0.6-    071102 H45  0.1-  0.1+    071115 H45  0.3+  0.2-
    070913 711  0.7-  0.5+    071102 H45  0.2-  0.1+    071115 H45  0.3+  0.4-
    070913 673  0.3-  0.4-    071102 H45  0.1-  0.1+    071115 H45  0.1+  0.3-
    070913 711  0.1-  0.2+    071103 G96  0.1+  0.5+    071115 H45  0.2+  0.4-
    070913 673  0.7-  0.0     071103 G96  0.5+  0.6+    071115 H45  0.2+  0.0
    070913 711  0.2-  0.3+    071103 G96  0.2+  0.5+    071115 A24  1.7-  0.9+
    070913 673  0.6-  0.4-    071104 H45  0.0   0.1-    071115 A24  1.7-  0.0
    070914 711  1.2+  0.3+    071104 H45  0.1+  0.3+    071117 A24  0.3-  0.5+
    070914 711  0.7+  0.2+    071104 H45  0.1-  0.4+    071117 A24  0.1+  0.2-
    070914 711  0.1+  0.7+    071104 H45  0.3-  0.4+    071117 A24  0.1+  0.0
    070914 703 (2.0-  1.2+)   071104 H45  0.3-  0.1+    071117 A24  0.1+  0.2-
    070914 703  0.2+  0.2-    071104 H45  0.3-  0.1-    071117 A24  0.2+  0.2+
    070914 703  1.3+  0.6+    071104 704  0.5-  0.1+    071117 H53 (4.3-  1.9+)
    070914 703  0.8+  0.6+    071104 704  0.3-  0.2-    071117 H53 (2.2-  0.8-)
    070922 448  0.8+  0.1-    071104 704  0.2-  0.1+    071117 H53  0.7+  0.1-
    070922 448  0.3-  0.6-    071104 704  0.1+  0.1-    071117 H53  0.9+  0.0
    070922 448  0.1+  0.7-    071105 H45  0.0   0.3-    071117 H53  0.0   0.4-
    070922 H55  0.3+  0.4-    071105 H45  0.1-  0.4-    071117 H53  1.1+  0.7-
    070922 H55  0.4+  1.2-    071105 H45  0.0   0.2-    071117 703  0.3+  0.5+
    070922 H55  1.4-  1.1-    071105 H45  0.0   0.2-    071117 703  0.0   0.1-
    071002 H55  0.1+  0.0     071105 H45  0.1-  0.3-    071117 703  0.4+  0.2+
    071002 H55  0.1-  0.0     071105 H45  0.3-  0.1+    071117 703  0.1+  0.6-
    071002 H55  0.1-  0.0     071105 H53  0.1+  0.1-    071118 H45  0.1-  0.2+
    071003 850  0.1+  0.9-    071105 H53  0.8+  0.6-    071118 H45  0.1-  0.0
    071003 850  0.1+  0.5-    071105 H53  0.3-  0.2+    071118 H45  0.1-  0.2-
    071003 448  0.5-  0.1-    071105 H53  1.9+  0.8-    071118 H45  0.0   0.0
    071003 448  0.7-  0.4-    071105 H53  1.0+  0.9+    071118 H45  0.1+  0.2-
    071003 448  0.7+  0.2-    071105 H53 (0.2-  2.3-)   071118 H45  0.1-  0.0
    071003 F65  0.1-  0.2-    071108 H45  0.1+  0.1+    071129 A82  0.1+  0.2+
    071003 F65  0.2-  0.3-    071108 H45  0.0   0.1-    071129 A82  0.2-  0.1+
    071003 F65  0.1+  0.2-    071108 H45  0.1-  0.3-    071129 A82  0.1-  1.0-
    071009 448  0.2+  0.4-    071108 H45  0.1-  0.0     071129 A82  0.1-  0.9-
    071009 448  0.2+  0.7-    071108 H45  0.0   0.0     071203 H45  0.3-  0.2+
    071010 703  0.1+  0.4+    071108 H45  0.1-  0.1-    071203 H45  0.1+  0.2+
    071010 703  0.1+  0.4+    071108 G96  0.2-  0.1-    071203 H45  0.1-  0.3+
    071010 703  0.7+  0.4+    071108 G96  0.1-  0.1-    071204 691  0.5-  0.4-
    071010 703  0.4-  0.2+    071108 G96  0.3+  0.2-    071204 691  0.3-  0.1-
    071013 157  0.3+  0.7-    071108 G96  0.1-  0.1-    071204 691  0.6-  0.5+
    071014 448  0.2+  0.4-    071108 G96  0.1+  0.3-    071204 H45  0.0   0.1+
    071014 448  0.2+  0.2-    071108 G96  0.3-  0.1-    071204 H45  0.8-  0.1-
    071014 448  0.4+  0.3-    071110 H45  0.2+  0.1-    071204 H45  0.1+  0.2-
    071019 699  0.3-  0.5-    071110 H45  0.3+  0.4-    071204 H45  0.2-  0.1+
    071019 699  0.1+  0.8-    071110 H45  0.1+  0.5-    071204 H45  0.2+  0.2-
    071019 704  0.0   0.1-    071110 H45  0.2+  0.2-    071204 H45  0.0   0.6-
    071019 704  0.6+  0.8+    071110 H45  0.2+  0.3-    071204 703  0.4-  1.2+
    071019 699  0.3+  1.0-    071110 H45  0.1+  0.3-    071204 703  0.7-  0.9+
    071019 704  0.2+  0.3+    071110 A24  0.2+  0.3-    071204 703  0.5-  1.2+
    071019 704  0.2+  0.1+    071110 A24  0.5+  0.1-    071204 703  0.6+  0.8+
    071019 699  0.3-  0.1-    071111 A24  0.1+  0.0     071206 691  0.2+  0.5-
    071019 704  0.3+  0.0     071111 A24  0.0   0.0     071206 691  0.2-  0.1+
    071019 703  0.2-  0.2+    071111 A24  0.3-  0.5+    071206 691  0.3-  0.2-
    071019 703  0.5+  0.0     071111 A24  1.0-  0.5-    071212 704  0.3+  0.1+
    071019 703  0.1+  0.3+    071111 699  0.3+  0.7+    071212 704  0.4+  0.6+
    071019 703  0.2-  0.2+    071111 699  0.8+  0.8+    071212 704  0.3+  0.8+
    071020 H51  0.5+  0.5-    071111 699  0.2-  0.4-    071212 704  0.6+  0.1+
    071020 H51  0.3-  0.4-    071111 699  0.2+  0.4+    071212 704  0.2+  0.4+
    071020 H51  0.4+  0.2-    071111 130  0.3+  0.4+    071213 704  0.2-  1.1+
    071020 H51  0.7-  0.5+    071111 130  0.0   0.0     071213 704  0.7-  0.1-
    071021 H45  0.0   0.2+    071111 A24  0.1+  0.4+    071213 704  0.7-  0.9+
    071021 H45  0.0   0.1+    071111 A24  0.1-  0.6+    071213 704  0.2+  0.8+
    071021 H45  0.0   0.1-    071111 130  0.0   0.1+    071213 704  0.6-  1.0+
    071021 H45  0.0   0.1+    071111 130  0.4+  0.3+    071215 704  1.3-  1.0+
    071021 H45  0.1-  0.0     071111 A24  0.1-  0.3+    071215 704  0.5-  0.4+
    071021 H45  0.1+  0.3+    071112 A24  0.4-  0.2+    071215 704  0.2-  0.0
    071024 G96  0.2+  0.2+    071112 A24  0.2-  1.0-    071215 704  0.1+  0.2-
    071024 G96  0.0   0.2+    071112 A24  0.8-  0.2+    071225 H55  0.7-  0.1-
    071024 G96  0.4+  0.0     071112 H53  0.5+  1.4-    071225 H55  0.4-  0.1-
    071024 G96  0.1+  0.3-    071112 H53  0.8+  0.1+    071225 H55  0.2-  0.5-
    071030 H45  0.7+  0.6+    071112 H53  0.2+  0.7+    100714 568  0.0   0.0
    071030 H45  0.6+  0.3+    071112 H53 (3.0-  0.2+)   100714 568  0.1+  0.0
    071030 H45  0.4+  0.2+    071112 H53  1.6-  0.6-    100715 568  0.0   0.3+
    071030 H45  0.4+  0.3+    071112 H53  0.4-  1.0+    100715 568  0.1+  0.2+
    
    Ephemeris:
    2007 RU12                a,e,i = 2.29, 0.45, 7                   q = 1.2621
    Date    TT    R. A. (2000) Decl.     Delta      r     Elong.  Phase     V
    2010 08 12    16 13.03   -26 14.3    1.864    2.368   107.0    24.2    24.4
    2010 08 22    16 17.38   -26 23.9    1.943    2.318    98.4    25.6    24.4
    
    Sonia Keys                   (C) Copyright 2010 MPC           M.P.E.C. 2010-Q15
    

    Read MPEC 2010-Q14 Read MPEC 2010-Q16


    MPEC number:

    Enter an MPEC number in one of the following forms:

    • 1997-B01 (the full form)
    • J97B01 (the packed version of the full form)
    • B01 (the abbreviated form)